FW4110 Weather Reports


time (UTC)temp
C
wind
direction
speed
KPH
gust
KPH
rain 1hr
cm
rain 24hr
cm
rain mn
cm
humidity
%
barometer
mb
20260905184508 37 294 3.2 9.7 0.00 0.00 0.00 62 1014.4
20260905183005 37 347 1.6 16.1 0.00 0.00 0.00 61 1014.5
20260905181604 37 7 4.8 14.5 0.00 0.00 0.00 63 1014.8
20260905180053 37 346 1.6 11.3 0.00 0.00 0.00 66 1014.8
20260905174548 36 11 4.8 12.9 0.00 0.00 0.00 67 1015.0
20260905173042 36 40 4.8 12.9 0.00 0.00 0.00 68 1015.0
20260905171537 36 16 9.7 17.7 0.00 0.00 0.00 68 1015.2
20260905170028 35 355 8.0 12.9 0.00 0.00 0.00 69 1015.6
20260905164530 34 350 9.7 12.9 0.00 0.00 0.00 71 1015.6
20260905163017 34 340 1.6 14.5 0.00 0.00 0.00 71 1015.8
20260905161509 34 344 4.8 9.7 0.00 0.00 0.00 74 1015.9
20260905160009 33 299 1.6 12.9 0.00 0.00 0.00 75 1015.8
20260905154600 32 325 1.6 14.5 0.00 0.00 0.00 75 1015.8
20260905153101 32 7 1.6 14.5 0.00 0.00 0.00 76 1016.0
20260905151549 31 325 0.0 14.5 0.00 0.00 0.00 77 1016.1
20260905150046 31 2 4.8 12.9 0.00 0.00 0.00 78 1016.1
20260905144546 31 339 3.2 8.0 0.00 0.00 0.00 78 1016.0
20260905143040 30 341 3.2 11.3 0.00 0.00 0.00 78 1016.0
20260905141535 30 27 1.6 6.4 0.00 0.00 0.00 79 1016.0
20260905140032 30 315 0.0 4.8 0.00 0.00 0.00 79 1016.1
20260905134527 28 332 0.0 9.7 0.00 0.00 0.00 80 1016.1
20260905133029 28 275 1.6 6.4 0.00 0.00 0.00 81 1016.2
20260905131530 28 244 1.6 6.4 0.00 0.00 0.00 80 1016.0
20260905130031 27 267 0.0 0.0 0.00 0.00 0.00 81 1015.9
20260905124516 26 199 0.0 0.0 0.00 0.00 0.00 80 1015.8
20260905123010 -17 0.0 0.0 0.00 0.00 0.00 1015.9
20260905121504 -17 0.0 0.0 0.00 0.00 0.00 1015.8
20260905120112 -17 0.0 0.0 0.00 0.00 0.00 1015.6
20260905114555 -17 0.0 0.0 0.00 0.00 0.00 1015.6
20260905113049 -17 0.0 0.0 0.00 0.00 0.00 1015.5
20260905111602 -17 0.0 0.0 0.00 0.00 0.00 1015.4
20260905110037 -17 0.0 0.0 0.00 0.00 0.00 1015.3
20260905104532 -17 0.0 0.0 0.00 0.00 0.00 1015.1
20260905103029 -17 0.0 0.0 0.00 0.00 0.00 1015.1
20260905101523 -17 0.0 0.0 0.00 0.00 0.00 1015.2
20260905100022 26 151 0.0 3.2 0.00 0.00 0.00 85 1015.1
20260905094517 26 145 0.0 3.2 0.00 0.00 0.00 86 1015.1
20260905093014 26 152 0.0 3.2 0.00 0.00 0.00 85 1015.0
20260905091511 26 187 0.0 1.6 0.00 0.00 0.00 87 1015.0
20260905090010 25 160 0.0 0.0 0.00 0.00 0.00 87 1015.1
20260905084506 25 159 0.0 0.0 0.00 0.00 0.00 88 1015.1
20260905083104 25 159 0.0 0.0 0.00 0.00 0.00 89 1015.2
20260905081559 26 159 0.0 0.0 0.00 0.00 0.00 89 1015.2
20260905080056 26 159 0.0 0.0 0.00 0.00 0.00 89 1015.4
20260905074558 26 159 0.0 0.0 0.00 0.00 0.00 89 1015.3
20260905073100 26 159 0.0 0.0 0.00 0.00 0.00 88 1015.3
20260905071547 27 158 0.0 0.0 0.00 0.00 0.00 88 1015.4
20260905070044 27 158 0.0 0.0 0.00 0.00 0.00 87 1015.4
20260905064541 27 168 1.6 4.8 0.00 0.00 0.00 87 1015.4
20260905063039 27 156 1.6 3.2 0.00 0.00 0.00 87 1015.3
20260905061535 27 171 0.0 3.2 0.00 0.00 0.00 87 1015.5
20260905060037 27 184 0.0 0.0 0.00 0.00 0.00 87 1015.6
20260905054540 28 184 0.0 0.0 0.00 0.00 0.00 85 1015.6
20260905053025 28 156 0.0 3.2 0.00 0.00 0.00 85 1015.6
20260905051520 28 207 0.0 0.0 0.00 0.00 0.00 86 1015.6
20260905050017 28 162 0.0 1.6 0.00 0.00 0.00 86 1015.4
20260905044518 27 162 0.0 0.0 0.00 0.00 0.00 86 1015.5
20260905043012 28 162 0.0 0.0 0.00 0.00 0.00 84 1015.6
20260905041510 28 156 0.0 3.2 0.00 0.00 0.00 83 1015.6
20260905040107 29 159 1.6 4.8 0.00 0.00 0.00 83 1015.6
20260905034507 29 151 1.6 4.8 0.00 0.00 0.00 83 1015.6
20260905033005 30 169 0.0 3.2 0.00 0.00 0.00 82 1015.5
20260905031506 30 158 1.6 4.8 0.00 0.00 0.00 80 1015.6
20260905030001 30 159 1.6 4.8 0.00 0.00 0.00 79 1015.5
20260905024622 30 164 0.0 3.2 0.00 0.00 0.00 78 1015.6
20260905023110 30 163 0.0 3.2 0.00 0.00 0.00 78 1015.5
20260905021600 30 244 1.6 8.0 0.00 0.00 0.00 79 1015.2
20260905020105 30 182 0.0 0.0 0.00 0.00 0.00 79 1015.1
20260905014557 28 185 0.0 3.2 0.00 0.00 0.00 81 1014.8
20260905013051 29 277 0.0 0.0 0.00 0.00 0.00 81 1014.6
20260905011549 29 277 0.0 0.0 0.00 0.00 0.00 81 1014.5
20260905010045 30 277 0.0 0.0 0.00 0.00 0.00 80 1014.3
20260905004544 30 277 0.0 0.0 0.00 0.00 0.00 79 1014.2
20260905003041 31 277 0.0 0.0 0.00 0.00 0.00 78 1014.2
20260905001540 32 277 0.0 0.0 0.00 0.00 0.00 76 1014.1
20260905000039 33 277 0.0 0.0 0.00 0.00 0.00 72 1014.2
20260904234537 35 277 0.0 1.6 0.00 0.00 0.00 69 1014.1
20260904233040 35 292 0.0 3.2 0.00 0.00 0.00 67 1014.1
20260904231536 35 19 0.0 3.2 0.00 0.00 0.00 66 1014.0
20260904230032 36 309 0.0 8.0 0.00 0.00 0.00 65 1014.0
20260904224529 36 163 1.6 9.7 0.00 0.00 0.00 64 1014.0
20260904223030 37 268 1.6 8.0 0.00 0.00 0.00 61 1014.1
20260904221524 38 249 3.2 6.4 0.00 0.00 0.00 60 1014.1
20260904220021 37 282 0.0 6.4 0.00 0.00 0.00 61 1014.3
20260904214532 37 357 4.8 12.9 0.00 0.00 0.00 61 1014.4
20260904213030 38 251 1.6 4.8 0.00 0.00 0.00 61 1014.5
20260904211518 38 321 0.0 4.8 0.00 0.00 0.00 60 1014.8
20260904210022 37 306 0.0 14.5 0.00 0.00 0.00 59 1015.0
20260904204514 38 186 1.6 9.7 0.00 0.00 0.00 58 1015.2
20260904203006 37 246 3.2 8.0 0.00 0.00 0.00 61 1015.4
20260904201505 37 141 3.2 9.7 0.00 0.00 0.00 60 1015.5
20260904200004 37 256 0.0 6.4 0.00 0.00 0.00 63 1015.7
20260904194608 36 178 1.6 9.7 0.00 0.00 0.00 64 1015.8
20260904193053 35 336 0.0 6.4 0.00 0.00 0.00 68 1016.1
20260904191551 36 21 3.2 11.3 0.00 0.00 0.00 65 1016.2
20260904190040 35 353 6.4 12.9 0.00 0.00 0.00 65 1016.4